TimeCDT,TemperatureF,Dew PointF,Humidity,Sea Level PressureIn,VisibilityMPH,Wind Direction,Wind SpeedMPH,Gust SpeedMPH,PrecipitationIn,Events,Conditions,WindDirDegrees,DateUTC
12:13 AM,84.2,75.2,74,29.97,10.0,SSW,10.4,-,N/A,,Clear,210,2013-08-26 05:13:00
12:34 AM,84.2,75.2,74,29.97,10.0,SSW,10.4,-,N/A,,Clear,210,2013-08-26 05:34:00
12:54 AM,84.2,75.2,74,29.97,10.0,SSW,11.5,16.1,N/A,,Clear,210,2013-08-26 05:54:00
1:13 AM,84.2,75.2,74,29.97,10.0,SSW,10.4,-,N/A,,Clear,210,2013-08-26 06:13:00
1:34 AM,84.2,75.2,74,29.97,10.0,SW,9.2,16.1,N/A,,Clear,220,2013-08-26 06:34:00
1:54 AM,84.2,75.2,74,29.97,10.0,SW,8.1,-,N/A,,Scattered Clouds,220,2013-08-26 06:54:00
2:13 AM,84.2,75.2,74,29.97,10.0,SW,10.4,16.1,N/A,,Scattered Clouds,220,2013-08-26 07:13:00
2:34 AM,82.4,75.2,79,29.96,10.0,SW,11.5,17.3,N/A,,Scattered Clouds,220,2013-08-26 07:34:00
2:54 AM,82.4,75.2,79,29.96,10.0,SW,10.4,-,N/A,,Clear,220,2013-08-26 07:54:00
3:14 AM,82.4,75.2,79,29.96,10.0,SW,11.5,16.1,N/A,,Clear,220,2013-08-26 08:14:00
3:34 AM,82.4,75.2,79,29.96,10.0,SW,10.4,-,N/A,,Clear,220,2013-08-26 08:34:00
3:54 AM,82.4,75.2,79,29.96,10.0,SW,9.2,-,N/A,,Clear,220,2013-08-26 08:54:00
4:14 AM,82.4,75.2,79,29.95,10.0,SW,8.1,-,N/A,,Clear,220,2013-08-26 09:14:00
4:34 AM,82.4,75.2,79,29.96,10.0,SW,5.8,-,N/A,,Clear,230,2013-08-26 09:34:00
4:54 AM,80.6,75.2,84,29.96,10.0,SW,5.8,-,N/A,,Clear,230,2013-08-26 09:54:00
5:14 AM,80.6,75.2,84,29.96,10.0,SW,6.9,-,N/A,,Clear,230,2013-08-26 10:14:00
5:34 AM,80.6,75.2,84,29.96,10.0,SW,5.8,-,N/A,,Clear,230,2013-08-26 10:34:00
5:54 AM,80.6,75.2,84,29.97,10.0,SSW,6.9,-,N/A,,Clear,210,2013-08-26 10:54:00
6:14 AM,80.6,75.2,84,29.97,10.0,SSW,5.8,-,N/A,,Clear,210,2013-08-26 11:14:00
6:34 AM,80.6,73.4,79,29.98,10.0,SSW,6.9,-,N/A,,Clear,200,2013-08-26 11:34:00
6:45 AM,80.6,73.4,79,29.98,10.0,SSW,6.9,-,N/A,,Scattered Clouds,200,2013-08-26 11:45:00
6:53 AM,80.6,73.4,79,29.98,10.0,South,6.9,-,N/A,,Clear,190,2013-08-26 11:53:00
7:45 AM,82.4,73.4,74,29.99,10.0,SSW,10.4,-,N/A,,Clear,200,2013-08-26 12:45:00
8:45 AM,84.2,73.4,70,29.98,10.0,SSW,9.2,-,N/A,,Scattered Clouds,210,2013-08-26 13:45:00
9:45 AM,87.8,73.4,62,29.98,10.0,SSW,9.2,-,N/A,,Scattered Clouds,210,2013-08-26 14:45:00
10:45 AM,87.8,73.4,62,29.97,10.0,SSW,9.2,-,N/A,,Scattered Clouds,210,2013-08-26 15:45:00
11:45 AM,89.6,73.4,59,29.97,10.0,South,6.9,-,N/A,,Scattered Clouds,180,2013-08-26 16:45:00
12:45 PM,91.4,71.6,52,29.95,10.0,South,6.9,-,N/A,,Mostly Cloudy,190,2013-08-26 17:45:00
1:45 PM,93.2,71.6,49,29.93,10.0,South,10.4,-,N/A,,Mostly Cloudy,190,2013-08-26 18:45:00
2:45 PM,96.8,71.6,44,29.90,10.0,South,10.4,-,N/A,,Mostly Cloudy,190,2013-08-26 19:45:00
3:45 PM,96.8,71.6,44,29.89,10.0,South,10.4,18.4,N/A,,Scattered Clouds,190,2013-08-26 20:45:00
4:45 PM,96.8,71.6,44,29.88,10.0,South,11.5,-,N/A,,Scattered Clouds,190,2013-08-26 21:45:00
5:45 PM,96.8,71.6,44,29.86,10.0,South,11.5,17.3,N/A,,Scattered Clouds,190,2013-08-26 22:45:00
7:45 PM,89.6,75.2,62,29.85,10.0,South,13.8,-,N/A,,Mostly Cloudy,190,2013-08-27 00:45:00
8:45 PM,89.6,75.2,62,29.86,10.0,South,13.8,-,N/A,,Mostly Cloudy,180,2013-08-27 01:45:00
9:14 PM,87.8,75.2,66,29.86,10.0,South,10.4,-,N/A,,Clear,180,2013-08-27 02:14:00
9:34 PM,87.8,75.2,66,29.86,10.0,South,8.1,-,N/A,,Clear,190,2013-08-27 02:34:00
9:45 PM,89.6,75.2,62,29.86,10.0,South,11.5,-,N/A,,Mostly Cloudy,180,2013-08-27 02:45:00
9:54 PM,89.6,75.2,62,29.86,10.0,South,11.5,16.1,N/A,,Clear,190,2013-08-27 02:54:00
10:13 PM,89.6,75.2,62,29.85,10.0,SSW,11.5,16.1,N/A,,Clear,200,2013-08-27 03:13:00
10:34 PM,89.6,75.2,62,29.86,10.0,SSW,10.4,16.1,N/A,,Clear,210,2013-08-27 03:34:00
10:53 PM,87.8,75.2,66,29.87,10.0,SSW,8.1,-,N/A,,Clear,210,2013-08-27 03:53:00
11:14 PM,87.8,75.2,66,29.86,10.0,SW,4.6,-,N/A,,Clear,230,2013-08-27 04:14:00
11:33 PM,87.8,75.2,66,29.86,10.0,SW,5.8,-,N/A,,Clear,220,2013-08-27 04:33:00
11:54 PM,86.0,75.2,70,29.86,10.0,SSW,5.8,-,N/A,,Clear,200,2013-08-27 04:54:00